EW2142 Weather Reports


Display with metric or nautical units.
time (UTC)temp
F
wind
direction
speed
MPH
gust
MPH
rain 1hr
in
rain 24hr
in
rain mn
in
humidity
%
barometer
mb
20260510191502 46 0 0.0 0.0 0.00 0.00 0.00 70 1007.3
20260510191003 46 87 0.0 1.0 0.00 0.00 0.00 70 1007.2
20260510190502 46 87 0.0 1.0 0.00 0.00 0.00 70 1007.2
20260510190003 47 0 0.0 0.0 0.00 0.00 0.00 70 1007.2
20260510185503 47 0 0.0 0.0 0.00 0.00 0.00 69 1007.3
20260510185024 47 0 0.0 0.0 0.00 0.00 0.00 69 1007.4
20260510184503 47 349 0.0 1.0 0.00 0.00 0.00 68 1007.4
20260510184003 48 349 0.0 1.0 0.00 0.00 0.00 67 1007.5
20260510183503 48 317 0.0 1.0 0.00 0.00 0.00 67 1007.5
20260510183003 48 320 0.0 1.0 0.00 0.00 0.00 66 1007.5
20260510182503 49 96 0.0 1.0 0.00 0.00 0.00 65 1007.6
20260510182003 49 311 0.0 1.0 0.00 0.00 0.00 64 1007.6
20260510181503 50 316 0.0 1.0 0.00 0.00 0.00 62 1007.6
20260510181024 51 293 0.0 2.0 0.00 0.00 0.00 61 1007.6
20260510180503 52 284 0.0 2.0 0.00 0.00 0.00 60 1007.7
20260510180024 53 261 0.0 3.0 0.00 0.00 0.00 58 1007.7
20260510175503 53 309 1.0 7.0 0.00 0.00 0.00 57 1007.7
20260510175003 54 311 0.0 7.0 0.00 0.00 0.00 54 1007.7
20260510174503 54 295 0.0 3.0 0.00 0.00 0.00 56 1007.8
20260510174002 54 308 0.0 3.0 0.00 0.00 0.00 55 1007.8
20260510173503 54 315 0.0 6.0 0.00 0.00 0.00 57 1007.8
20260510173003 54 290 0.0 6.0 0.00 0.00 0.00 57 1007.8
20260510172503 54 286 0.0 4.0 0.00 0.00 0.00 59 1007.9
20260510172024 54 302 1.0 7.0 0.00 0.00 0.00 58 1007.9
20260510171503 55 309 1.0 7.0 0.00 0.00 0.00 57 1008.0
20260510171024 55 312 1.0 5.0 0.00 0.00 0.00 55 1008.0
20260510170502 55 297 1.0 5.0 0.00 0.00 0.00 56 1008.0
20260510170003 55 250 0.0 5.0 0.00 0.00 0.00 57 1008.0
20260510165502 54 282 1.0 5.0 0.00 0.00 0.00 57 1008.1
20260510165003 54 292 1.0 5.0 0.00 0.00 0.00 56 1008.2
20260510164524 55 257 1.0 4.0 0.00 0.00 0.00 56 1008.3
20260510164003 56 271 1.0 5.0 0.00 0.00 0.00 57 1008.3
20260510163503 55 289 0.0 5.0 0.00 0.00 0.00 57 1008.3
20260510163003 55 263 0.0 5.0 0.00 0.00 0.00 57 1008.3
20260510162503 54 290 1.0 6.0 0.00 0.00 0.00 58 1008.4
20260510162003 54 299 1.0 6.0 0.00 0.00 0.00 57 1008.5
20260510161524 55 288 1.0 6.0 0.00 0.00 0.00 60 1008.5
20260510161002 56 304 1.0 6.0 0.00 0.00 0.00 59 1008.5
20260510160503 55 308 1.0 6.0 0.00 0.00 0.00 59 1008.6
20260510160003 56 260 1.0 5.0 0.00 0.00 0.00 58 1008.6
20260510155502 56 307 1.0 9.0 0.00 0.00 0.00 58 1008.7
20260510155003 56 307 1.0 9.0 0.00 0.00 0.00 56 1008.7
20260510154503 57 278 0.0 4.0 0.00 0.00 0.00 56 1008.8
20260510154003 58 217 1.0 5.0 0.00 0.00 0.00 54 1008.7
20260510153503 58 253 0.0 5.0 0.00 0.00 0.00 55 1008.8
20260510153003 57 295 1.0 5.0 0.00 0.00 0.00 56 1008.9
20260510152503 56 301 1.0 5.0 0.00 0.00 0.00 54 1008.9
20260510152003 57 313 1.0 6.0 0.00 0.00 0.00 59 1009.0
20260510151503 57 292 0.0 6.0 0.00 0.00 0.00 59 1009.1
20260510151002 57 251 1.0 6.0 0.00 0.00 0.00 58 1009.2
20260510150503 57 275 1.0 6.0 0.00 0.00 0.00 58 1009.1
20260510150003 57 288 1.0 5.0 0.00 0.00 0.00 58 1009.3
20260510145502 57 304 1.0 5.0 0.00 0.00 0.00 59 1009.3
20260510145003 57 299 1.0 5.0 0.00 0.00 0.00 57 1009.2
20260510144503 57 287 1.0 7.0 0.00 0.00 0.00 57 1009.3
20260510144003 58 227 0.0 7.0 0.00 0.00 0.00 57 1009.3
20260510143503 58 179 0.0 6.0 0.00 0.00 0.00 57 1009.4
20260510143003 56 274 1.0 3.0 0.00 0.00 0.00 62 1009.5
20260510142503 55 302 1.0 5.0 0.00 0.00 0.00 62 1009.5
20260510142027 55 305 1.0 6.0 0.00 0.00 0.00 62 1009.5
20260510141524 55 306 1.0 6.0 0.00 0.00 0.00 62 1009.6
20260510141002 55 277 1.0 4.0 0.00 0.00 0.00 63 1009.6
20260510140503 55 217 1.0 4.0 0.00 0.00 0.00 63 1009.6
20260510140006 55 233 1.0 4.0 0.00 0.00 0.00 63 1009.6
20260510135523 56 271 1.0 5.0 0.00 0.00 0.00 62 1009.6
20260510135003 55 289 1.0 5.0 0.00 0.00 0.00 65 1009.6
20260510134503 54 282 1.0 4.0 0.00 0.00 0.00 67 1009.8
20260510134003 54 297 1.0 4.0 0.00 0.00 0.00 67 1009.8
20260510133503 53 267 1.0 4.0 0.00 0.00 0.00 68 1009.9
20260510133003 53 217 0.0 3.0 0.00 0.00 0.00 68 1009.9
20260510132503 53 298 0.0 6.0 0.00 0.00 0.00 69 1009.9
20260510132003 53 302 1.0 6.0 0.00 0.00 0.00 69 1010.0
20260510131503 53 282 1.0 5.0 0.00 0.00 0.00 68 1010.1
20260510131002 54 230 0.0 4.0 0.00 0.00 0.00 65 1010.1
20260510130503 56 266 0.0 4.0 0.00 0.00 0.00 63 1010.2
20260510130003 56 296 1.0 4.0 0.00 0.00 0.00 63 1010.1
20260510125523 57 297 1.0 4.0 0.00 0.00 0.00 61 1010.1
20260510125004 57 259 1.0 5.0 0.00 0.00 0.00 60 1010.1
20260510124503 57 248 0.0 3.0 0.00 0.00 0.00 59 1010.3
20260510124006 57 293 1.0 4.0 0.00 0.00 0.00 61 1010.3
20260510123504 57 306 1.0 5.0 0.00 0.00 0.00 62 1010.4
20260510123003 57 307 1.0 5.0 0.00 0.00 0.00 60 1010.4
20260510122503 57 301 1.0 6.0 0.00 0.00 0.00 61 1010.4
20260510122024 57 303 1.0 6.0 0.00 0.00 0.00 61 1010.4
20260510121503 58 290 0.0 5.0 0.00 0.00 0.00 58 1010.5
20260510121024 58 151 0.0 3.0 0.00 0.00 0.00 61 1010.5
20260510120502 57 270 1.0 6.0 0.00 0.00 0.00 61 1010.5
20260510120002 57 276 1.0 6.0 0.00 0.00 0.00 59 1010.6
20260510115524 56 282 1.0 8.0 0.00 0.00 0.00 61 1010.6
20260510115024 56 288 1.0 8.0 0.00 0.00 0.00 63 1010.7
20260510114503 56 302 1.0 6.0 0.00 0.00 0.00 63 1010.9
20260510114003 56 303 1.0 6.0 0.00 0.00 0.00 63 1010.8
20260510113503 56 295 1.0 6.0 0.00 0.00 0.00 62 1010.8
20260510113003 55 291 1.0 4.0 0.00 0.00 0.00 65 1010.8
20260510112503 55 288 1.0 7.0 0.00 0.00 0.00 66 1010.9
20260510112003 54 297 1.0 7.0 0.00 0.00 0.00 67 1011.0
20260510111503 54 308 1.0 6.0 0.00 0.00 0.00 66 1011.0
20260510111003 55 311 1.0 5.0 0.00 0.00 0.00 65 1010.9
20260510110503 55 307 0.0 6.0 0.00 0.00 0.00 65 1011.0
20260510110002 55 307 0.0 6.0 0.00 0.00 0.00 66 1011.0
20260510105524 55 305 0.0 3.0 0.00 0.00 0.00 66 1011.1
20260510105002 55 311 0.0 3.0 0.00 0.00 0.00 66 1011.1
20260510104524 55 313 0.0 3.0 0.00 0.00 0.00 65 1011.1
20260510104003 55 310 0.0 3.0 0.00 0.00 0.00 67 1011.1
20260510103503 55 314 1.0 6.0 0.00 0.00 0.00 66 1011.2
20260510103003 55 310 1.0 6.0 0.00 0.00 0.00 61 1011.4
20260510102503 55 304 1.0 3.0 0.00 0.00 0.00 63 1011.4
20260510102003 54 304 1.0 4.0 0.00 0.00 0.00 67 1011.4
20260510101503 55 306 1.0 5.0 0.00 0.00 0.00 64 1011.5
20260510101003 55 306 1.0 5.0 0.00 0.00 0.00 62 1011.5
20260510100523 55 273 1.0 6.0 0.00 0.00 0.00 62 1011.6
20260510100003 56 284 1.0 6.0 0.00 0.00 0.00 63 1011.5
20260510095503 56 308 1.0 5.0 0.00 0.00 0.00 66 1011.4
20260510095002 56 299 1.0 8.0 0.00 0.00 0.00 65 1011.6
20260510094503 57 286 1.0 8.0 0.00 0.00 0.00 64 1011.6
20260510094003 57 282 1.0 5.0 0.00 0.00 0.00 59 1011.4
20260510093503 58 259 0.0 5.0 0.00 0.00 0.00 60 1011.5
20260510093003 58 237 0.0 6.0 0.00 0.00 0.00 60 1011.4
20260510092503 58 260 0.0 6.0 0.00 0.00 0.00 58 1011.5
20260510092024 58 278 0.0 4.0 0.00 0.00 0.00 58 1011.5
20260510091503 59 295 0.0 6.0 0.00 0.00 0.00 58 1011.4
20260510091003 60 297 0.0 6.0 0.00 0.00 0.00 59 1011.5
20260510090502 59 277 0.0 5.0 0.00 0.00 0.00 60 1011.5
20260510090003 59 285 0.0 5.0 0.00 0.00 0.00 60 1011.6
20260510085503 58 287 0.0 4.0 0.00 0.00 0.00 61 1011.6
20260510085003 58 287 0.0 4.0 0.00 0.00 0.00 62 1011.6
20260510084503 57 302 0.0 4.0 0.00 0.00 0.00 62 1011.7
20260510084003 57 246 1.0 8.0 0.00 0.00 0.00 62 1011.7
20260510083524 57 231 1.0 8.0 0.00 0.00 0.00 62 1011.7
20260510083003 58 301 0.0 4.0 0.00 0.00 0.00 62 1011.8
20260510082503 58 304 0.0 4.0 0.00 0.00 0.00 64 1011.8
20260510082003 58 299 0.0 4.0 0.00 0.00 0.00 64 1011.8
20260510081503 58 297 0.0 3.0 0.00 0.00 0.00 63 1011.9
20260510081024 59 294 0.0 3.0 0.00 0.00 0.00 63 1011.9
20260510080503 59 289 0.0 5.0 0.00 0.00 0.00 62 1012.0
20260510080003 58 289 0.0 5.0 0.00 0.00 0.00 62 1012.0
20260510075503 57 270 0.0 4.0 0.00 0.00 0.00 63 1012.0
20260510075024 56 270 0.0 4.0 0.00 0.00 0.00 65 1012.0
20260510074502 56 263 0.0 1.0 0.00 0.00 0.00 65 1012.1
20260510074003 55 293 0.0 2.0 0.00 0.00 0.00 66 1012.0
20260510073503 54 289 0.0 2.0 0.00 0.00 0.00 66 1012.2
20260510073003 54 249 0.0 1.0 0.00 0.00 0.00 66 1012.3
20260510072503 55 234 0.0 2.0 0.00 0.00 0.00 65 1012.4
20260510072003 55 255 0.0 2.0 0.00 0.00 0.00 65 1012.3
20260510071503 54 130 0.0 3.0 0.00 0.00 0.00 65 1012.4
20260510071003 54 116 0.0 3.0 0.00 0.00 0.00 65 1012.5
20260510070503 54 132 0.0 1.0 0.00 0.00 0.00 63 1012.5
20260510070003 53 278 0.0 1.0 0.00 0.00 0.00 62 1012.6
20260510065502 53 290 0.0 1.0 0.00 0.00 0.00 61 1012.7
20260510065003 52 129 0.0 3.0 0.00 0.00 0.00 60 1012.8
20260510064503 52 117 0.0 3.0 0.00 0.00 0.00 60 1012.9
20260510064003 51 314 0.0 2.0 0.00 0.00 0.00 59 1012.9
20260510063503 50 307 0.0 2.0 0.00 0.00 0.00 58 1013.0
20260510063024 50 305 0.0 1.0 0.00 0.00 0.00 56 1013.0
20260510062524 50 272 0.0 1.0 0.00 0.00 0.00 56 1013.0
20260510062003 49 280 0.0 2.0 0.00 0.00 0.00 54 1013.1
20260510061503 48 115 0.0 4.0 0.00 0.00 0.00 53 1013.2
20260510061003 48 115 0.0 4.0 0.00 0.00 0.00 54 1013.2
20260510060503 47 11 0.0 1.0 0.00 0.00 0.00 54 1013.4
20260510060024 47 354 0.0 1.0 0.00 0.00 0.00 53 1013.4
20260510055502 46 0 0.0 0.0 0.00 0.00 0.00 54 1013.4
20260510055003 46 0 0.0 0.0 0.00 0.00 0.00 55 1013.4
20260510054503 45 0 0.0 0.0 0.00 0.00 0.00 55 1013.4
20260510054003 45 0 0.0 0.0 0.00 0.00 0.00 55 1013.5
20260510053502 44 0 0.0 0.0 0.00 0.00 0.00 56 1013.6
20260510053003 44 0 0.0 0.0 0.00 0.00 0.00 55 1013.6
20260510052524 44 0 0.0 0.0 0.00 0.00 0.00 54 1013.7
20260510052024 44 0 0.0 0.0 0.00 0.00 0.00 52 1013.7
20260510051503 43 0 0.0 0.0 0.00 0.00 0.00 50 1013.8
20260510051003 43 0 0.0 0.0 0.00 0.00 0.00 46 1013.8
20260510050503 42 0 0.0 0.0 0.00 0.00 0.00 42 1013.9
20260510050003 42 0 0.0 0.0 0.00 0.00 0.00 37 1014.0
20260510045503 41 0 0.0 0.0 0.00 0.00 0.00 24 1014.0
20260510045002 40 0 0.0 0.0 0.00 0.00 0.00 5 1014.0
20260510044503 40 0 0.0 0.0 0.00 0.00 0.00 1 1014.1
20260510044003 39 0 0.0 0.0 0.00 0.00 0.00 1 1014.1
20260510043503 39 0 0.0 0.0 0.00 0.00 0.00 1 1014.1
20260510043003 38 0 0.0 0.0 0.00 0.00 0.00 1 1014.2
20260510042503 38 0 0.0 0.0 0.00 0.00 0.00 1 1014.2
20260510042003 38 0 0.0 0.0 0.00 0.00 0.00 1 1014.3
20260510041503 37 0 0.0 0.0 0.00 0.00 0.00 1 1014.3
20260510041003 37 0 0.0 0.0 0.00 0.00 0.00 2 1014.4
20260510040524 37 0 0.0 0.0 0.00 0.00 0.00 3 1014.4
20260510040003 36 0 0.0 0.0 0.00 0.00 0.00 4 1014.5
20260510035503 36 0 0.0 0.0 0.00 0.00 0.00 8 1014.6
20260510035002 36 0 0.0 0.0 0.00 0.00 0.00 10 1014.6
20260510034503 36 0 0.0 0.0 0.00 0.00 0.00 11 1014.7
20260510034003 36 0 0.0 0.0 0.00 0.00 0.00 11 1014.8
20260510033503 36 0 0.0 0.0 0.00 0.00 0.00 11 1014.8
20260510033003 36 0 0.0 0.0 0.00 0.00 0.00 10 1014.9
20260510032503 36 0 0.0 0.0 0.00 0.00 0.00 8 1015.0
20260510032003 36 0 0.0 0.0 0.00 0.00 0.00 11 1015.0
20260510031503 36 0 0.0 0.0 0.00 0.00 0.00 17 1015.0
20260510031003 36 0 0.0 0.0 0.00 0.00 0.00 17 1015.1
20260510030503 36 0 0.0 0.0 0.00 0.00 0.00 17 1015.1
20260510030003 36 0 0.0 0.0 0.00 0.00 0.00 19 1015.2
20260510025503 36 0 0.0 0.0 0.00 0.00 0.00 19 1015.3
20260510025003 36 0 0.0 0.0 0.00 0.00 0.00 19 1015.4
20260510024503 36 0 0.0 0.0 0.00 0.00 0.00 19 1015.4
20260510024003 36 0 0.0 0.0 0.00 0.00 0.00 19 1015.5
20260510023503 36 0 0.0 0.0 0.00 0.00 0.00 20 1015.5
20260510023024 36 0 0.0 0.0 0.00 0.00 0.00 20 1015.6
20260510022503 36 0 0.0 0.0 0.00 0.00 0.00 20 1015.6
20260510022024 36 0 0.0 0.0 0.00 0.00 0.00 20 1015.6
20260510021503 37 0 0.0 0.0 0.00 0.00 0.00 19 1015.6
20260510021003 37 0 0.0 0.0 0.00 0.00 0.00 18 1015.7
20260510020503 37 0 0.0 0.0 0.00 0.00 0.00 20 1015.7
20260510020004 37 0 0.0 0.0 0.00 0.00 0.00 21 1015.7
20260510015524 37 0 0.0 0.0 0.00 0.00 0.00 23 1015.8
20260510015003 37 0 0.0 0.0 0.00 0.00 0.00 24 1015.9
20260510014503 37 0 0.0 0.0 0.00 0.00 0.00 25 1015.9
20260510014003 37 0 0.0 0.0 0.00 0.00 0.00 26 1015.9
20260510013503 37 0 0.0 0.0 0.00 0.00 0.00 27 1016.0
20260510013003 37 0 0.0 0.0 0.00 0.00 0.00 27 1016.1
20260510012503 38 0 0.0 0.0 0.00 0.00 0.00 26 1016.2
20260510012024 38 0 0.0 0.0 0.00 0.00 0.00 24 1016.2
20260510011524 37 0 0.0 0.0 0.00 0.00 0.00 28 1016.3
20260510011003 37 0 0.0 0.0 0.00 0.00 0.00 34 1016.4
20260510010524 37 0 0.0 0.0 0.00 0.00 0.00 34 1016.4
20260510010024 37 0 0.0 0.0 0.00 0.00 0.00 35 1016.6
20260510005502 38 0 0.0 0.0 0.00 0.00 0.00 35 1016.6
20260510005002 38 0 0.0 0.0 0.00 0.00 0.00 36 1016.7
20260510004503 38 0 0.0 0.0 0.00 0.00 0.00 37 1016.7
20260510004003 38 0 0.0 0.0 0.00 0.00 0.00 37 1016.8
20260510003503 38 0 0.0 0.0 0.00 0.00 0.00 38 1016.9
20260510003003 38 0 0.0 0.0 0.00 0.00 0.00 41 1016.9
20260510002503 38 0 0.0 0.0 0.00 0.00 0.00 41 1017.0
20260510002003 38 0 0.0 0.0 0.00 0.00 0.00 42 1017.1
20260510001524 38 0 0.0 0.0 0.00 0.00 0.00 43 1017.1
20260510001003 38 0 0.0 0.0 0.00 0.00 0.00 43 1017.2
20260510000503 38 0 0.0 0.0 0.00 0.00 0.00 44 1017.3
20260510000003 39 0 0.0 0.0 0.00 0.00 0.00 45 1017.3
20260509235503 39 0 0.0 0.0 0.00 0.00 0.00 46 1017.3
20260509235002 39 0 0.0 0.0 0.00 0.00 0.00 47 1017.4
20260509234503 39 0 0.0 0.0 0.00 0.00 0.00 51 1017.3
20260509234003 39 0 0.0 0.0 0.00 0.00 0.00 52 1017.3
20260509233524 39 0 0.0 0.0 0.00 0.00 0.00 54 1017.3
20260509233003 40 0 0.0 0.0 0.00 0.00 0.00 54 1017.3
20260509232503 40 0 0.0 0.0 0.00 0.00 0.00 54 1017.3
20260509232003 40 0 0.0 0.0 0.00 0.00 0.00 54 1017.3
20260509231503 40 0 0.0 0.0 0.00 0.00 0.00 54 1017.4
20260509231003 40 0 0.0 0.0 0.00 0.00 0.00 54 1017.4
20260509230524 40 0 0.0 0.0 0.00 0.00 0.00 54 1017.6
20260509230004 40 0 0.0 0.0 0.00 0.00 0.00 54 1017.6
20260509225502 40 0 0.0 0.0 0.00 0.00 0.00 56 1017.7
20260509225002 40 0 0.0 0.0 0.00 0.00 0.00 57 1017.7
20260509224503 40 0 0.0 0.0 0.00 0.00 0.00 57 1017.8
20260509224003 41 0 0.0 0.0 0.00 0.00 0.00 58 1017.9
20260509223503 41 0 0.0 0.0 0.00 0.00 0.00 59 1017.9
20260509223003 41 0 0.0 0.0 0.00 0.00 0.00 60 1018.0
20260509222503 41 0 0.0 0.0 0.00 0.00 0.00 62 1018.0
20260509222003 41 0 0.0 0.0 0.00 0.00 0.00 62 1018.0
20260509221503 41 0 0.0 0.0 0.00 0.00 0.00 64 1018.1
20260509221003 41 0 0.0 0.0 0.00 0.00 0.00 65 1018.2
20260509220524 42 0 0.0 0.0 0.00 0.00 0.00 66 1018.2
20260509220026 42 0 0.0 0.0 0.00 0.00 0.00 67 1018.2
20260509215502 42 0 0.0 0.0 0.00 0.00 0.00 67 1018.2
20260509215003 42 0 0.0 0.0 0.00 0.00 0.00 68 1018.3
20260509214503 42 0 0.0 0.0 0.00 0.00 0.00 68 1018.2
20260509214024 42 0 0.0 0.0 0.00 0.00 0.00 68 1018.2
20260509213503 42 0 0.0 0.0 0.00 0.00 0.00 69 1018.1
20260509213003 43 0 0.0 0.0 0.00 0.00 0.00 69 1018.1
20260509212503 43 0 0.0 0.0 0.00 0.00 0.00 69 1018.2
20260509212003 43 0 0.0 0.0 0.00 0.00 0.00 69 1018.2
20260509211503 43 0 0.0 0.0 0.00 0.00 0.00 69 1018.3
20260509211003 43 0 0.0 0.0 0.00 0.00 0.00 69 1018.3
20260509210503 44 0 0.0 0.0 0.00 0.00 0.00 69 1018.4
20260509210003 44 0 0.0 0.0 0.00 0.00 0.00 69 1018.5
20260509205502 44 0 0.0 0.0 0.00 0.00 0.00 70 1018.4
20260509205023 44 0 0.0 0.0 0.00 0.00 0.00 70 1018.4
20260509204503 44 0 0.0 0.0 0.00 0.00 0.00 70 1018.5
20260509204003 45 0 0.0 0.0 0.00 0.00 0.00 70 1018.5
20260509203503 45 0 0.0 0.0 0.00 0.00 0.00 70 1018.4
20260509203003 45 0 0.0 0.0 0.00 0.00 0.00 70 1018.4
20260509202503 46 0 0.0 0.0 0.00 0.00 0.00 70 1018.4
20260509202003 46 0 0.0 0.0 0.00 0.00 0.00 70 1018.4
20260509201503 46 0 0.0 0.0 0.00 0.00 0.00 69 1018.3
20260509201003 46 0 0.0 0.0 0.00 0.00 0.00 69 1018.3
20260509200503 47 0 0.0 0.0 0.00 0.00 0.00 68 1018.3
20260509200003 47 0 0.0 0.0 0.00 0.00 0.00 68 1018.3
20260509195524 47 0 0.0 0.0 0.00 0.00 0.00 67 1018.3
20260509195003 48 0 0.0 0.0 0.00 0.00 0.00 67 1018.4
20260509194503 48 0 0.0 0.0 0.00 0.00 0.00 66 1018.5
20260509194002 49 0 0.0 0.0 0.00 0.00 0.00 65 1018.5
20260509193503 49 0 0.0 0.0 0.00 0.00 0.00 64 1018.5
20260509193003 50 0 0.0 0.0 0.00 0.00 0.00 63 1018.5
20260509192003 51 0 0.0 0.0 0.00 0.00 0.00 62 1018.6